User: anonymous   Login
Location: Melbourne
(37.8170°S, 144.9670°E)
Time: 05:10:59
(UTC+11:00)
Language:

ERBS - Orbit

View from above orbital plane
View from above orbital plane
View from above satellite
View from above satellite

Ground track
Ground track

The orbit data is extracted from the following two-line orbital elements,

1 15354U 84108B   14302.44778321  .00016514  00000-0  56014-3 0  6257
2 15354 057.0133 288.2912 0021930 087.1907 273.1652 15.30509483650160
Epoch (UTC): 29 October 2014 10:44:48
Eccentricity: 0.0021930
inclination: 57.0133°
perigee height: 459 km
apogee height: 489 km
right ascension of ascending node: 288.2912°
argument of perigee: 87.1907°
revolutions per day: 15.30509483
mean anomaly at epoch: 273.1652°
orbit number at epoch: 65016

The dashed part of the orbit path shows where the satellite is in the earth's shadow,  

DLR